Location: Waco, TX
(31.5480°N, 97.1670°W)
Time: 19:30:11
(UTC-06:00)

ISS - All Passes

Search period start: 18 November 2025 00:00
Search period end: 28 November 2025 00:00
Orbit: 414 x 420 km, 51.6° (Epoch: 18 November)

Date Brightness Start Highest point End Pass type
(mag) Time Alt. Az. Time Alt. Az. Time Alt. Az.
18 Nov - 01:31:11 10° WSW 01:32:02 11° SW 01:32:53 10° SW night (unlit)
18 Nov - 14:55:47 10° S 14:58:10 18° SE 15:00:33 10° E daylight
18 Nov - 16:31:46 10° WSW 16:34:44 29° NW 16:37:42 10° NNE daylight
18 Nov - 23:04:30 10° NNW 23:07:24 26° NE 23:10:15 10° E night (unlit)
19 Nov - 00:41:26 10° WNW 00:44:00 21° SW 00:46:35 10° S night (unlit)
19 Nov - 15:43:12 10° WSW 15:46:28 55° NW 15:49:46 10° NE daylight
19 Nov - 22:16:52 10° N 22:19:02 16° NE 22:21:11 10° ENE night (unlit)
19 Nov - 23:52:44 10° WNW 23:55:55 41° SW 23:59:04 10° SSE night (unlit)
20 Nov - 14:54:56 10° SW 14:58:15 71° SE 15:01:35 10° NE daylight
20 Nov - 16:34:03 10° NW 16:35:20 12° NNW 16:36:37 10° N daylight
20 Nov - 21:30:09 10° NNE 21:30:34 10° NNE 21:30:59 10° NE night (unlit)
20 Nov - 23:04:23 10° NW 23:07:44 89° SW 23:11:03 10° SE night (unlit)
21 Nov - 14:07:02 10° SSW 14:10:04 33° SE 14:13:07 10° ENE daylight
21 Nov - 15:44:27 10° W 15:46:52 18° NW 15:49:18 10° N daylight
21 Nov - 22:16:14 10° NNW 22:19:27 44° NE 22:22:39 10° ESE night (unlit)
21 Nov - 23:54:39 10° WSW 23:55:51 12° SW 23:57:04 10° SSW night (unlit)
22 Nov - 13:19:40 10° S 13:21:55 17° SE 13:24:10 10° E daylight
22 Nov - 14:55:27 10° WSW 14:58:27 31° NW 15:01:29 10° NNE daylight
22 Nov - 21:28:16 10° NNW 21:31:04 24° NE 21:33:52 10° E night (unlit)
22 Nov - 23:05:03 10° WNW 23:07:43 22° SW 23:10:23 10° S night (unlit)
23 Nov - 14:06:48 10° SW 14:10:05 60° NW 14:13:24 10° NE daylight
23 Nov - 20:40:33 10° N 20:42:35 15° NE 20:44:38 10° ENE night (unlit)
23 Nov - 22:16:18 10° WNW 22:19:30 45° SW 22:22:42 10° SSE night (unlit)
24 Nov - 13:18:28 10° SW 13:21:46 64° SE 13:25:04 10° NE daylight
24 Nov - 14:57:19 10° WNW 14:58:48 12° NNW 15:00:17 10° N daylight
24 Nov - 21:27:52 10° NW 21:31:12 84° NE 21:34:31 10° SE night (unlit)
25 Nov - 12:30:30 10° SSW 12:33:28 30° SE 12:36:28 10° ENE daylight
25 Nov - 14:07:43 10° W 14:10:14 20° NW 14:12:45 10° NNE daylight
25 Nov - 20:39:37 10° NNW 20:42:48 41° NE 20:45:58 10° ESE night (unlit)
25 Nov - 22:17:42 10° W 22:19:14 13° SW 22:20:45 10° SSW night (unlit)
26 Nov - 11:43:07 10° SSE 11:45:13 16° SE 11:47:18 10° E daylight
26 Nov - 13:18:39 10° WSW 13:21:43 33° NW 13:24:47 10° NNE daylight
26 Nov - 19:51:34 10° NNW 19:54:18 23° NE 19:57:01 10° E night (unlit)
26 Nov - 21:28:12 10° WNW 21:30:59 24° SW 21:33:44 10° S night (unlit)
27 Nov - 12:29:56 10° SW 12:33:15 66° NW 12:36:34 10° NE daylight
27 Nov - 19:03:48 10° N 19:05:41 14° NNE 19:07:35 10° ENE visible
27 Nov - 20:39:24 10° NW 20:42:38 50° SW 20:45:52 10° SSE night (unlit)
